DW6366 Weather Reports


Display with metric or nautical units.
time (UTC)temp
F
wind
direction
speed
MPH
gust
MPH
rain 1hr
in
rain 24hr
in
rain mn
in
humidity
%
barometer
mb
20260906000327 54 250 0.0 0.0 0.00 0.00 0.00 88 1027.0
20260905235354 54 250 0.0 0.0 0.00 0.00 0.00 88 1026.9
20260905234353 55 250 0.0 0.0 0.00 0.00 0.00 88 1027.0
20260905233351 55 250 0.0 0.0 0.00 0.00 0.00 88 1026.9
20260905232339 55 250 0.0 0.0 0.00 0.00 0.00 88 1027.0
20260905231328 55 250 0.0 0.0 0.00 0.00 0.00 87 1026.8
20260905230355 55 250 0.0 0.0 0.00 0.00 0.00 87 1026.8
20260905225346 55 248 0.0 0.0 0.00 0.00 0.00 87 1026.8
20260905224339 56 248 0.0 0.0 0.00 0.00 0.00 86 1026.8
20260905223329 56 249 0.0 0.0 0.00 0.00 0.00 86 1026.8
20260905222414 56 249 0.0 0.0 0.00 0.00 0.00 85 1026.8
20260905221344 56 249 0.0 0.0 0.00 0.00 0.00 85 1026.7
20260905220321 56 249 0.0 0.0 0.00 0.00 0.00 85 1026.6
20260905215324 57 252 0.0 0.0 0.00 0.00 0.00 85 1026.6
20260905214401 57 252 0.0 0.0 0.00 0.00 0.00 84 1026.7
20260905213343 57 252 0.0 0.0 0.00 0.00 0.00 84 1026.4
20260905212352 58 252 0.0 0.0 0.00 0.00 0.00 84 1026.6
20260905211325 58 252 0.0 0.0 0.00 0.00 0.00 83 1026.4
20260905210344 58 331 0.0 0.0 0.00 0.00 0.00 82 1026.3
20260905205336 59 331 0.0 0.0 0.00 0.00 0.00 82 1026.3
20260905204329 59 331 0.0 0.0 0.00 0.00 0.00 81 1026.2
20260905203322 60 331 0.0 0.0 0.00 0.00 0.00 80 1026.2
20260905202352 60 331 0.0 0.0 0.00 0.00 0.00 79 1026.2
20260905201328 60 331 0.0 0.0 0.00 0.00 0.00 78 1026.1
20260905200329 61 331 0.0 0.0 0.00 0.00 0.00 76 1026.1
20260905195321 62 331 0.0 0.0 0.00 0.00 0.00 75 1026.2
20260905194320 62 331 0.0 0.0 0.00 0.00 0.00 74 1026.1
20260905193404 63 331 0.0 0.0 0.00 0.00 0.00 74 1026.0
20260905192345 63 329 0.0 0.0 0.00 0.00 0.00 73 1025.9
20260905191346 64 329 0.0 0.0 0.00 0.00 0.00 72 1025.8
20260905190400 64 329 0.0 0.0 0.00 0.00 0.00 72 1025.9
20260905185322 64 329 0.0 0.0 0.00 0.00 0.00 71 1025.8
20260905184333 64 329 0.0 0.0 0.00 0.00 0.00 70 1025.8
20260905183331 65 329 0.0 2.0 0.00 0.00 0.00 70 1025.7
20260905182517 65 329 1.0 5.0 0.00 0.00 0.00 69 1025.6
20260905181406 65 208 1.0 5.0 0.00 0.00 0.00 69 1025.6
20260905180402 65 302 2.0 5.0 0.00 0.00 0.00 68 1025.6
20260905175336 66 208 4.0 7.0 0.00 0.00 0.00 68 1025.5
20260905174348 66 208 4.0 9.0 0.00 0.00 0.00 67 1025.5
20260905173336 66 314 3.0 8.0 0.00 0.00 0.00 67 1025.5
20260905172349 66 307 4.0 9.0 0.00 0.00 0.00 67 1025.5
20260905171420 66 321 5.0 9.0 0.00 0.00 0.00 67 1025.5
20260905170327 67 208 4.0 8.0 0.00 0.00 0.00 66 1025.4
20260905165346 67 320 5.0 9.0 0.00 0.00 0.00 65 1025.3
20260905164411 67 310 3.0 10.0 0.00 0.00 0.00 65 1025.2
20260905163350 67 208 1.0 8.0 0.00 0.00 0.00 64 1025.2
20260905162415 67 295 3.0 8.0 0.00 0.00 0.00 64 1025.0
20260905161335 67 208 5.0 12.0 0.00 0.00 0.00 63 1025.1
20260905160404 69 348 3.0 14.0 0.00 0.00 0.00 61 1025.0
20260905155322 68 208 3.0 11.0 0.00 0.00 0.00 63 1024.9
20260905154346 68 304 5.0 10.0 0.00 0.00 0.00 63 1024.7
20260905153338 69 208 7.0 15.0 0.00 0.00 0.00 61 1024.6
20260905152347 69 208 5.0 18.0 0.00 0.00 0.00 61 1024.6
20260905151329 69 297 9.0 17.0 0.00 0.00 0.00 62 1024.5
20260905150415 67 208 8.0 17.0 0.00 0.00 0.00 63 1024.5
20260905145324 68 300 9.0 18.0 0.00 0.00 0.00 62 1024.6
20260905144343 70 305 8.0 13.0 0.00 0.00 0.00 61 1024.4
20260905143339 67 208 5.0 14.0 0.00 0.00 0.00 64 1024.3
20260905142410 68 304 6.0 14.0 0.00 0.00 0.00 63 1024.1
20260905141358 68 338 7.0 15.0 0.00 0.00 0.00 63 1024.1
20260905140406 68 208 7.0 14.0 0.00 0.00 0.00 65 1023.9
20260905135336 67 309 7.0 16.0 0.00 0.00 0.00 66 1023.9
20260905134413 68 292 9.0 16.0 0.00 0.00 0.00 65 1023.8
20260905133339 68 208 9.0 15.0 0.00 0.00 0.00 61 1023.6
20260905132426 68 208 7.0 18.0 0.00 0.00 0.00 63 1023.5
20260905131326 68 293 7.0 16.0 0.00 0.00 0.00 65 1023.4
20260905130337 68 208 7.0 16.0 0.00 0.00 0.00 64 1023.3
20260905125326 69 208 9.0 16.0 0.00 0.04 0.00 63 1023.4
20260905124347 68 208 7.0 14.0 0.00 0.04 0.00 66 1023.4
20260905123439 68 208 6.0 18.0 0.00 0.04 0.00 65 1023.3
20260905122418 69 208 8.0 18.0 0.00 0.04 0.00 63 1023.1
20260905121344 70 304 8.0 17.0 0.00 0.04 0.00 62 1022.9
20260905120334 72 213 10.0 17.0 0.00 0.04 0.00 59 1022.9
20260905115343 72 273 7.0 18.0 0.00 0.55 0.00 61 1022.9
20260905114330 72 285 9.0 18.0 0.00 0.55 0.00 60 1022.8
20260905113339 71 208 11.0 18.0 0.00 0.55 0.00 60 1022.6
20260905112358 71 208 7.0 14.0 0.00 0.55 0.00 63 1022.6
20260905111340 69 208 10.0 17.0 0.00 0.55 0.00 65 1022.5
20260905110344 70 269 8.0 16.0 0.00 0.55 0.00 63 1022.4
20260905105347 70 208 9.0 20.0 0.00 0.55 0.00 63 1022.4
20260905104409 69 208 8.0 17.0 0.00 0.55 0.00 63 1022.3
20260905103343 70 271 10.0 18.0 0.00 0.55 0.00 63 1022.1
20260905102430 71 208 5.0 20.0 0.00 0.55 0.00 63 1022.0
20260905101340 70 264 9.0 18.0 0.00 0.55 0.00 64 1021.8
20260905100335 69 301 7.0 17.0 0.00 0.55 0.00 66 1021.7
20260905095341 69 208 11.0 19.0 0.00 0.55 0.00 65 1021.6
20260905094331 68 305 11.0 16.0 0.00 0.55 0.00 68 1021.6
20260905093418 67 208 8.0 16.0 0.00 0.55 0.00 70 1021.5
20260905092404 68 208 8.0 17.0 0.00 0.55 0.00 69 1021.3
20260905091338 68 208 9.0 17.0 0.00 0.55 0.00 70 1021.2
20260905090344 68 257 7.0 16.0 0.00 0.55 0.00 71 1021.0
20260905085330 67 252 8.0 20.0 0.00 0.55 0.00 72 1020.9
20260905084328 67 291 9.0 18.0 0.00 0.55 0.00 73 1020.8
20260905083337 66 310 8.0 19.0 0.00 0.55 0.00 74 1020.7
20260905082359 67 290 4.0 17.0 0.00 0.55 0.00 75 1020.5
20260905081339 66 208 8.0 19.0 0.00 0.55 0.00 75 1020.3
20260905080342 65 208 10.0 15.0 0.00 0.55 0.00 75 1020.3
20260905075403 65 264 7.0 15.0 0.00 0.55 0.00 76 1020.1
20260905074329 65 228 5.0 13.0 0.00 0.55 0.00 77 1020.0
20260905073412 64 208 7.0 20.0 0.00 0.55 0.00 77 1019.9
20260905072403 64 208 8.0 15.0 0.00 0.55 0.00 79 1019.8
20260905071347 64 294 3.0 13.0 0.00 0.55 0.00 81 1019.7
20260905070330 64 208 6.0 14.0 0.00 0.55 0.00 81 1019.6
20260905065339 63 208 6.0 15.0 0.00 0.55 0.00 81 1019.4
20260905064354 63 277 7.0 13.0 0.00 0.55 0.00 82 1019.4
20260905062328 62 275 6.0 12.0 0.00 0.55 0.00 83 1019.1
20260905061345 62 270 3.0 13.0 0.00 0.55 0.00 85 1019.1
20260905060339 61 304 5.0 10.0 0.00 0.55 0.00 85 1018.9
20260905055324 61 304 4.0 9.0 0.00 0.55 0.00 86 1019.0
20260905054403 61 261 3.0 8.0 0.00 0.55 0.00 86 1018.8
20260905053400 61 275 2.0 8.0 0.00 0.55 0.00 87 1018.6
20260905052329 60 273 4.0 10.0 0.00 0.55 0.00 87 1018.5
20260905051329 60 277 3.0 6.0 0.00 0.55 0.00 87 1018.4
20260905050339 60 292 2.0 9.0 0.00 0.55 0.00 86 1018.3
20260905045422 60 257 1.0 4.0 0.00 0.55 0.00 86 1018.2
20260905044335 60 282 2.0 8.0 0.00 0.55 0.00 86 1018.1
20260905043324 60 273 3.0 8.0 0.00 0.55 0.00 86 1018.0
20260905042349 60 288 3.0 8.0 0.00 0.55 0.00 86 1018.0
20260905041326 59 271 2.0 4.0 0.00 0.55 0.00 85 1018.0
20260905040330 60 227 2.0 8.0 0.00 0.55 0.00 84 1018.0
20260905035321 60 241 3.0 5.0 0.00 0.55 0.00 84 1017.9
20260905034348 60 279 2.0 8.0 0.00 0.55 0.00 84 1017.8
20260905033344 60 316 2.0 5.0 0.00 0.55 0.00 83 1017.8
20260905032358 60 270 2.0 5.0 0.00 0.55 0.00 83 1017.7
20260905031318 60 242 1.0 4.0 0.00 0.55 0.00 81 1017.7
20260905030357 60 264 1.0 3.0 0.00 0.55 0.00 81 1017.6
20260905025327 61 257 1.0 4.0 0.00 0.55 0.00 81 1017.3
20260905024354 61 208 2.0 5.0 0.00 0.55 0.00 80 1017.3
20260905023339 61 275 1.0 7.0 0.00 0.55 0.00 80 1017.3
20260905022338 61 266 2.0 8.0 0.00 0.55 0.00 80 1017.4
20260905021320 61 275 2.0 6.0 0.00 0.55 0.00 79 1017.3
20260905020350 61 277 3.0 8.0 0.00 0.55 0.00 79 1017.2
20260905015338 62 299 4.0 9.0 0.00 0.55 0.00 81 1017.2
20260905014326 62 292 3.0 6.0 0.00 0.55 0.00 79 1017.1
20260905013327 62 283 4.0 7.0 0.00 0.55 0.00 78 1017.0
20260905012414 62 270 1.0 6.0 0.00 0.55 0.00 77 1017.1
20260905011325 62 296 3.0 10.0 0.00 0.55 0.00 77 1017.0
20260905005340 63 285 3.0 8.0 0.00 0.55 0.00 76 1016.9
20260905004325 63 289 4.0 10.0 0.00 0.55 0.00 76 1017.0
20260905003325 63 300 4.0 10.0 0.00 0.55 0.00 76 1016.9
20260905002324 63 292 5.0 10.0 0.00 0.55 0.00 76 1016.9
20260905001357 63 292 6.0 12.0 0.00 0.55 0.00 76 1016.9